When you browse on this site, cookies collect data to enhance your experience and personalize the content and advertising you see.
Visit our Privacy Policy to learn more. By continuing to use the site, you agree to this use of cookies and data.
  • Em Portugal
  • Lista de países
  • Para 7 dias
  • Temperatura da água
  • Mapas de satélite
  • Mapa do tempo
  • Widgets de tempo
  • user-avatar
    Iniciar Sessão

    Previsão horária em Bershad

    Hoje, 18 Abril, Quinta-feira

    Tempo Temperatura Precipitação Vento Pressão Humidade
    00:00 +8°C° 0 mm 3 m/s 750 mmHg 91%
    01:00 +7°C° 0 mm 2 m/s 750 mmHg 92%
    02:00 +7°C° 0 mm 2 m/s 750 mmHg 93%
    03:00 +6°C° 0 mm 2 m/s 750 mmHg 93%
    04:00 +6°C° 0 mm 2 m/s 751 mmHg 94%
    05:00 +5°C° 0 mm 3 m/s 751 mmHg 94%
    06:00 +5°C° 0 mm 3 m/s 751 mmHg 90%
    07:00 +7°C° 0 mm 3 m/s 751 mmHg 86%
    08:00 +7°C° 0 mm 4 m/s 752 mmHg 81%
    09:00 +8°C° 0 mm 4 m/s 752 mmHg 72%
    10:00 +10°C° 0 mm 4 m/s 752 mmHg 64%
    11:00 +10°C° 0 mm 5 m/s 752 mmHg 55%
    12:00 +11°C° 0 mm 4 m/s 752 mmHg 52%
    13:00 +12°C° 0 mm 4 m/s 752 mmHg 49%
    14:00 +13°C° 0 mm 4 m/s 751 mmHg 47%
    15:00 +13°C° 0 mm 4 m/s 751 mmHg 47%
    16:00 +13°C° 0 mm 4 m/s 751 mmHg 47%
    17:00 +13°C° 0 mm 3 m/s 751 mmHg 47%
    18:00 +12°C° 0 mm 3 m/s 750 mmHg 50%
    19:00 +12°C° 0 mm 2 m/s 750 mmHg 54%
    20:00 +11°C° 0 mm 1 m/s 750 mmHg 57%
    21:00 +10°C° 0 mm 1 m/s 750 mmHg 59%
    22:00 +9°C° 0 mm 0 m/s 750 mmHg 61%
    23:00 +8°C° 0 mm 0 m/s 749 mmHg 63%

    Amanhã, 19 Abril, Sexta-feira

    Tempo Temperatura Precipitação Vento Pressão Humidade
    00:00 +9°C° 0.1 mm 1 m/s 749 mmHg 65%
    01:00 +9°C° 0.1 mm 1 m/s 749 mmHg 68%
    02:00 +8°C° 0.1 mm 2 m/s 748 mmHg 70%
    03:00 +8°C° 0.8 mm 1 m/s 748 mmHg 77%
    04:00 +8°C° 0.8 mm 1 m/s 748 mmHg 83%
    05:00 +7°C° 0.8 mm 1 m/s 747 mmHg 90%
    06:00 +8°C° 0.3 mm 1 m/s 748 mmHg 87%
    07:00 +7°C° 0.3 mm 2 m/s 748 mmHg 85%
    08:00 +8°C° 0.3 mm 3 m/s 748 mmHg 82%
    09:00 +8°C° 0.4 mm 3 m/s 748 mmHg 82%
    10:00 +7°C° 0.4 mm 3 m/s 749 mmHg 82%
    11:00 +7°C° 0.4 mm 3 m/s 749 mmHg 81%
    12:00 +8°C° 0.1 mm 3 m/s 750 mmHg 72%
    13:00 +10°C° 0.1 mm 3 m/s 750 mmHg 62%
    14:00 +11°C° 0.1 mm 4 m/s 750 mmHg 53%
    15:00 +11°C° 0 mm 4 m/s 750 mmHg 52%
    16:00 +11°C° 0 mm 4 m/s 750 mmHg 51%
    17:00 +11°C° 0 mm 4 m/s 750 mmHg 50%
    18:00 +10°C° 0 mm 4 m/s 751 mmHg 54%
    19:00 +9°C° 0 mm 3 m/s 751 mmHg 58%
    20:00 +7°C° 0 mm 3 m/s 751 mmHg 62%
    21:00 +7°C° 0 mm 2 m/s 752 mmHg 64%
    22:00 +7°C° 0 mm 2 m/s 752 mmHg 65%
    23:00 +6°C° 0 mm 2 m/s 752 mmHg 66%

    Depois de amanhã, 20 Abril, Sábado

    Tempo Temperatura Precipitação Vento Pressão Humidade
    00:00 +6°C° 0 mm 2 m/s 752 mmHg 68%
    01:00 +5°C° 0 mm 2 m/s 752 mmHg 70%
    02:00 +5°C° 0 mm 2 m/s 752 mmHg 71%
    03:00 +4°C° 0 mm 2 m/s 752 mmHg 73%
    04:00 +4°C° 0 mm 2 m/s 752 mmHg 74%
    05:00 +4°C° 0 mm 2 m/s 752 mmHg 75%
    06:00 +5°C° 0 mm 2 m/s 752 mmHg 70%
    07:00 +7°C° 0 mm 2 m/s 752 mmHg 65%
    08:00 +8°C° 0 mm 3 m/s 752 mmHg 60%
    09:00 +9°C° 0 mm 3 m/s 752 mmHg 53%
    10:00 +10°C° 0 mm 3 m/s 752 mmHg 47%
    11:00 +12°C° 0 mm 3 m/s 752 mmHg 41%
    12:00 +12°C° 0 mm 3 m/s 752 mmHg 40%
    13:00 +12°C° 0 mm 3 m/s 752 mmHg 40%
    14:00 +13°C° 0 mm 2 m/s 751 mmHg 40%
    15:00 +13°C° 0 mm 2 m/s 751 mmHg 40%
    16:00 +13°C° 0 mm 1 m/s 751 mmHg 41%
    17:00 +13°C° 0 mm 1 m/s 750 mmHg 41%
    18:00 +12°C° 0 mm 1 m/s 750 mmHg 44%
    19:00 +12°C° 0 mm 1 m/s 750 mmHg 48%
    20:00 +11°C° 0 mm 1 m/s 750 mmHg 52%
    21:00 +9°C° 0 mm 2 m/s 750 mmHg 54%
    22:00 +9°C° 0 mm 2 m/s 750 mmHg 57%
    23:00 +8°C° 0 mm 2 m/s 750 mmHg 59%

    21 Abril, Domingo

    Tempo Temperatura Precipitação Vento Pressão Humidade
    00:00 +8°C° 0 mm 2 m/s 750 mmHg 62%
    01:00 +7°C° 0 mm 2 m/s 750 mmHg 65%
    02:00 +7°C° 0 mm 2 m/s 749 mmHg 68%
    03:00 +7°C° 0.1 mm 2 m/s 749 mmHg 70%
    04:00 +7°C° 0.1 mm 2 m/s 749 mmHg 71%
    05:00 +7°C° 0.1 mm 2 m/s 749 mmHg 73%
    06:00 +7°C° 0.2 mm 2 m/s 749 mmHg 74%
    07:00 +7°C° 0.2 mm 2 m/s 749 mmHg 74%
    08:00 +8°C° 0.2 mm 2 m/s 749 mmHg 75%
    09:00 +8°C° 0.3 mm 2 m/s 749 mmHg 72%
    10:00 +9°C° 0.3 mm 3 m/s 749 mmHg 69%
    11:00 +10°C° 0.3 mm 3 m/s 749 mmHg 66%
    12:00 +11°C° 0.4 mm 3 m/s 749 mmHg 63%
    13:00 +12°C° 0.4 mm 4 m/s 749 mmHg 60%
    14:00 +12°C° 0.4 mm 4 m/s 749 mmHg 58%
    15:00 +12°C° 0.4 mm 4 m/s 748 mmHg 59%
    16:00 +12°C° 0.4 mm 4 m/s 748 mmHg 60%
    17:00 +12°C° 0.4 mm 3 m/s 748 mmHg 61%
    18:00 +11°C° 0.2 mm 3 m/s 748 mmHg 65%
    19:00 +10°C° 0.2 mm 3 m/s 749 mmHg 70%
    20:00 +9°C° 0.2 mm 2 m/s 749 mmHg 74%
    21:00 +9°C° 0.1 mm 2 m/s 749 mmHg 74%
    22:00 +9°C° 0.1 mm 3 m/s 749 mmHg 74%
    23:00 +8°C° 0.1 mm 3 m/s 750 mmHg 74%

    22 Abril, Segunda-feira

    Tempo Temperatura Precipitação Vento Pressão Humidade
    00:00 +8°C° 0 mm 3 m/s 750 mmHg 73%
    01:00 +7°C° 0 mm 3 m/s 750 mmHg 73%
    02:00 +7°C° 0 mm 2 m/s 750 mmHg 73%
    03:00 +6°C° 0 mm 2 m/s 750 mmHg 73%
    04:00 +6°C° 0 mm 2 m/s 750 mmHg 73%
    05:00 +5°C° 0 mm 2 m/s 750 mmHg 73%
    06:00 +7°C° 0 mm 3 m/s 751 mmHg 68%
    07:00 +8°C° 0 mm 3 m/s 751 mmHg 63%
    08:00 +8°C° 0 mm 4 m/s 751 mmHg 58%
    09:00 +11°C° 0 mm 4 m/s 752 mmHg 53%
    10:00 +12°C° 0 mm 4 m/s 752 mmHg 47%
    11:00 +13°C° 0 mm 5 m/s 752 mmHg 42%
    12:00 +13°C° 0 mm 4 m/s 752 mmHg 42%
    13:00 +13°C° 0 mm 4 m/s 752 mmHg 42%
    14:00 +13°C° 0 mm 4 m/s 752 mmHg 42%
    15:00 +13°C° 0 mm 4 m/s 752 mmHg 44%
    16:00 +13°C° 0 mm 4 m/s 752 mmHg 45%
    17:00 +13°C° 0 mm 4 m/s 752 mmHg 47%
    18:00 +12°C° 0 mm 3 m/s 752 mmHg 50%
    19:00 +11°C° 0 mm 3 m/s 752 mmHg 54%
    20:00 +10°C° 0 mm 2 m/s 752 mmHg 57%
    21:00 +10°C° 0 mm 2 m/s 753 mmHg 58%
    22:00 +9°C° 0 mm 2 m/s 753 mmHg 58%
    23:00 +9°C° 0 mm 2 m/s 753 mmHg 59%

    23 Abril, Terça-feira

    Tempo Temperatura Precipitação Vento Pressão Humidade
    00:00 +9°C° 0 mm 2 m/s 753 mmHg 60%
    01:00 +8°C° 0 mm 2 m/s 753 mmHg 61%
    02:00 +8°C° 0 mm 3 m/s 753 mmHg 62%
    03:00 +7°C° 0 mm 3 m/s 753 mmHg 64%
    04:00 +7°C° 0 mm 3 m/s 754 mmHg 66%
    05:00 +7°C° 0 mm 3 m/s 754 mmHg 68%
    06:00 +8°C° 0 mm 3 m/s 754 mmHg 64%
    07:00 +10°C° 0 mm 4 m/s 754 mmHg 60%
    08:00 +10°C° 0 mm 5 m/s 755 mmHg 57%
    09:00 +12°C° 0 mm 5 m/s 755 mmHg 53%
    10:00 +13°C° 0 mm 5 m/s 755 mmHg 49%
    11:00 +14°C° 0 mm 6 m/s 755 mmHg 45%
    12:00 +14°C° 0 mm 6 m/s 754 mmHg 45%
    13:00 +15°C° 0 mm 6 m/s 754 mmHg 45%
    14:00 +15°C° 0 mm 6 m/s 754 mmHg 45%
    15:00 +14°C° 0 mm 5 m/s 753 mmHg 46%
    16:00 +14°C° 0 mm 5 m/s 753 mmHg 48%
    17:00 +14°C° 0 mm 5 m/s 753 mmHg 49%
    18:00 +13°C° 0 mm 4 m/s 753 mmHg 51%
    19:00 +12°C° 0 mm 4 m/s 753 mmHg 52%
    20:00 +12°C° 0 mm 4 m/s 753 mmHg 54%
    21:00 +11°C° 0 mm 4 m/s 753 mmHg 55%
    22:00 +11°C° 0 mm 4 m/s 753 mmHg 56%
    23:00 +10°C° 0 mm 4 m/s 753 mmHg 57%
    Mostrar mais